Weather History for KINK - June, 2013

Change the Weather History Date:

Thursday, June 6, 2013

  Actual Average Record
Temperature  
Mean Temperature 77 °F -  
Max Temperature 91 °F 94 °F 110 °F (1980)
Min Temperature 64 °F 64 °F 55 °F (1985)
Cooling Degree Days 12    
Growing Degree Days 27 (Base 50)    
Moisture  
Dew Point 56 °F    
Average Humidity 50    
Maximum Humidity 78    
Minimum Humidity 30    
Precipitation  
Precipitation 0.00 in - - ()
Sea Level Pressure  
Sea Level Pressure 29.83 in    
Wind  
Wind Speed 16 mph (ENE)    
Max Wind Speed 31 mph    
Max Gust Speed 46 mph    
Visibility 10 miles    
Events      
Averages and records for this station are not official NWS values.
T = Trace of Precipitation, MM = Missing Value Source: NWS Daily Summary

Daily Weather History Graph

Daily Weather History Graph

Search for Another Location

Airport or City:

Trip Planner

Search our weather history database for the weather conditions in past years. The results will help you decide how hot, cold, wet, or windy it might be!

Date:

Astronomy

Jun. 06, 2013 Rise Set
Actual Time 6:47 AM CDT 8:56 PM CDT
Civil Twilight 6:19 AM CDT 9:24 PM CDT
Nautical Twilight 5:45 AM CDT 9:58 PM CDT
Astronomical Twilight 5:08 AM CDT 10:35 PM CDT
Moon 5:24 AM CDT (6/6) 7:24 PM CDT (6/6)
Length of Visible Light 15h 05m
Length of Day
14h 09m
Waning Crescent, 3% of the Moon is Illuminated
Jun 6
Waning Crescent
Jun 8
New
Jun 16
First Quarter
Jun 23
Full
Jun 29
Last Quarter

Hourly Weather History & Observations

Time (CDT) Temp. Heat Index Dew Point Humidity Pressure Visibility Wind Dir Wind Speed Gust Speed Precip Events Conditions
12:20 AM 71.6 °F - 53.6 °F 53% 29.91 in 10.0 mi NE 29.9 mph 46.0 mph N/A   Overcast
12:53 AM 73.0 °F - 51.1 °F 46% 29.75 in 10.0 mi NE 31.1 mph 43.7 mph N/A   Partly Cloudy
1:53 AM 72.0 °F - 51.1 °F 48% 29.73 in 10.0 mi NE 23.0 mph 35.7 mph N/A   Clear
2:53 AM 71.1 °F - 53.1 °F 53% 29.75 in 10.0 mi NE 17.3 mph 26.5 mph N/A   Clear
3:53 AM 69.1 °F - 55.9 °F 63% 29.77 in 10.0 mi East 10.4 mph - N/A   Clear
4:53 AM 69.1 °F - 55.0 °F 61% 29.78 in 10.0 mi Calm Calm - N/A   Clear
5:53 AM 66.0 °F - 55.0 °F 68% 29.81 in 10.0 mi NW 5.8 mph - N/A   Clear
6:53 AM 64.9 °F - 57.0 °F 75% 29.83 in 10.0 mi North 8.1 mph - N/A   Clear
7:53 AM 66.0 °F - 59.0 °F 78% 29.85 in 10.0 mi NNE 15.0 mph - N/A   Clear
8:53 AM 69.1 °F - 57.9 °F 68% 29.88 in 10.0 mi NNE 16.1 mph 21.9 mph N/A   Clear
9:53 AM 73.0 °F - 57.9 °F 59% 29.89 in 10.0 mi ENE 12.7 mph - N/A   Clear
10:53 AM 75.9 °F - 57.0 °F 52% 29.89 in 10.0 mi NE 6.9 mph - N/A   Scattered Clouds
11:53 AM 79.0 °F - 57.0 °F 47% 29.91 in 10.0 mi ESE 5.8 mph - N/A   Scattered Clouds
12:53 PM 81.0 °F 81.0 °F 57.0 °F 44% 29.88 in 10.0 mi East 9.2 mph - N/A   Scattered Clouds
1:53 PM 84.9 °F 83.9 °F 57.0 °F 38% 29.86 in 10.0 mi ENE 8.1 mph - N/A   Partly Cloudy
2:53 PM 84.9 °F 83.7 °F 55.9 °F 37% 29.84 in 10.0 mi NE 8.1 mph - N/A   Mostly Cloudy
3:53 PM 87.1 °F 85.3 °F 55.0 °F 33% 29.82 in 10.0 mi Calm Calm - N/A   Scattered Clouds
4:53 PM 90.0 °F 87.9 °F 55.0 °F 30% 29.78 in 10.0 mi ENE 10.4 mph 16.1 mph N/A   Scattered Clouds
5:50 PM 89.6 °F 87.7 °F 55.4 °F 31% 29.90 in 10.0 mi ESE 9.2 mph 18.4 mph N/A   Scattered Clouds
5:53 PM 89.1 °F 87.1 °F 55.0 °F 31% 29.77 in 10.0 mi East 11.5 mph 18.4 mph N/A   Scattered Clouds
6:53 PM 88.0 °F 86.5 °F 55.9 °F 34% 29.77 in 10.0 mi ENE 11.5 mph - N/A   Scattered Clouds
7:53 PM 84.9 °F 83.9 °F 57.0 °F 38% 29.78 in 10.0 mi ENE 17.3 mph 23.0 mph N/A   Clear
8:53 PM 82.0 °F 82.0 °F 57.9 °F 44% 29.79 in 10.0 mi ENE 15.0 mph - N/A   Clear
9:53 PM 78.1 °F - 57.9 °F 50% 29.82 in 10.0 mi ENE 16.1 mph 23.0 mph N/A   Clear
10:53 PM 75.9 °F - 57.9 °F 54% 29.84 in 10.0 mi East 12.7 mph - N/A   Clear
11:53 PM 73.9 °F - 57.9 °F 57% 29.87 in 10.0 mi East 11.5 mph - N/A   Clear